STARLINK-5725, 55605

Orbit data source: Space-Track

STARLINK-5725, 55605 is a payload satellite owned by SpaceX/Seattle (US) in LEO that was launched on Sun, 12 Feb 2023 UTC via an FALCON 9 launch vehicle from the Air Force Eastern Test Range (AFETR). Payload-class satellites include a variety of spacecraft equipped with specific instruments for various scientific and technological missions. These include communications satellites like Starlink; space stations such as the ISS; scientific satellites like the Hubble; Earth observation satellites from companies like Planet Labs, Umbra, and HawkEye 360; GPS; miniature CubeSats for education and research; and military/defense satellites.

Loading next visibility...
Identifier
55605, 2023-020AN
Orbit
LEO
Country
Flag of USUS
Related business
Manufacturer
SpaceX/Seattle
Mission
Operational spacecraft
Bus & Motor
STARLINK, Unknown motor
Mass
305 kg wet, ~290 kg dry
Launch date (UTC)
2023-02-12 (3 years ago)
Launch vehicle
FALCON 9
Launch site
Air Force Eastern Test Range (AFETR)
Object type
Payload
Rocket body
Debris
Shape & HBR
Unknown shape, 10.1 m
Radar Cross Section
Large (>1 m²)

Expand to show TLE details & history
Last TLE update: 15 hours ago

TLE from 15 hours ago
0 STARLINK-5725
1 55605U 23020AN  25340.86964997  .00000361  00000-0  41833-4 0  9993
2 55605  43.0021 136.2872 0001267 274.8460  85.2238 15.02529581155107
Epoch: 2025-12-06T20:52Z
TLE epoch observation values (Epoch: 2025-12-06T20:52:17.757Z)
Latitude
0.00001°
Longitude
107.32203°
Altitude
558.804 km
Speed
7.584 km/s
True Right ascension
09h 05m 08s
True Declination
0° 00' 00"
Sunlit
Object was in full shadow at epoch
Visualization orbit readout
Latitude
Unknown
Longitude
Unknown
Altitude
Unknown
Speed
Unknown
Apparent Right ascension
Unknown
Apparent Declination
Unknown
Sunlit
N/A
Visualization observer readout
Local Sidereal Time
09:32:57
Azimuth
Unknown
Elevation
Unknown
Doppler factor
Unknown
Orbital elements
Apogee altitude
561.902 km
Perigee altitude
560.144 km
Semi-major axis
6,939.16 km
Eccentricity
0.00013
Inclination
43.0021°
RAAN
136.2872°
Arg. of periapsis
274.846°
True anomaly
85.23827°
Mean anomaly
85.2238°
Eccentric anomaly
85.23103°
Mean motion
3.75477 °/min
Orbital period
95.88 mins
BSTAR
0.000041833
Loading maneuver chart data...
Computing Atmospheric mass density...
Loading historical data...
Loading historical data...
Loading historical data...
Loading historical data...
Loading historical data...
Loading historical data...
Loading historical data...

Documentation

Showing up to 5 results
|